Northeast Philadelphia, PA

1:04 PM EST on November 22, 2019 (GMT -0500)
Northeast Philadelphia

Weather History for KPNE - September, 2019

Change the Weather History Date:

Monday, September 16, 2019

  Actual Average Record
Temperature  
Mean Temperature 74 °F -  
Max Temperature 84 °F 75 °F 90 °F (1998)
Min Temperature 64 °F 56 °F 46 °F (2001)
Cooling Degree Days 9    
Growing Degree Days 24 (Base 50)    
Moisture  
Dew Point 61 °F    
Average Humidity 62    
Maximum Humidity 81    
Minimum Humidity 44    
Precipitation  
Precipitation 0.00 in - - ()
Sea Level Pressure  
Sea Level Pressure 30.05 in    
Wind  
Wind Speed 2 mph ()    
Max Wind Speed 9 mph    
Max Gust Speed -    
Visibility 10.0 miles    
Events      
Averages and records for this station are not official NWS values.
T = Trace of Precipitation, MM = Missing Value Source: Averaged Metar Reports

Daily Weather History Graph

Daily Weather History Graph

Search for Another Location

Airport or City:

Astronomy

Sep. 16, 2019 Rise Set
Actual Time 6:41 AM EDT 7:07 PM EDT
Civil Twilight 6:14 AM EDT 7:34 PM EDT
Nautical Twilight 5:42 AM EDT 8:06 PM EDT
Astronomical Twilight 5:09 AM EDT 8:39 PM EDT
Moon 8:41 PM EDT (9/16) 8:46 AM EDT (9/16)
Length of Visible Light 13h 20m
Length of Day
12h 25m
Waning Gibbous, 94% of the Moon is Illuminated
Sep 16
Waning Gibbous
Sep 21
Last Quarter
Sep 28
New
Oct 5
First Quarter
Oct 13
Full

Hourly Weather History & Observations

Time (EDT) Temp. Heat Index Dew Point Humidity Pressure Visibility Wind Dir Wind Speed Gust Speed Precip Events Conditions
12:54 AM 68.0 °F - 59.0 °F 73% 30.09 in 10.0 mi Calm Calm - N/A   Clear
1:54 AM 68.0 °F - 60.1 °F 76% 30.09 in 10.0 mi Calm Calm - N/A   Overcast
2:54 AM 70.0 °F - 60.1 °F 71% 30.08 in 10.0 mi Calm Calm - N/A   Scattered Clouds
3:54 AM 66.9 °F - 60.1 °F 79% 30.07 in 10.0 mi Calm Calm - N/A   Scattered Clouds
4:54 AM 68.0 °F - 60.1 °F 76% 30.07 in 10.0 mi Calm Calm - N/A   Overcast
5:54 AM 66.9 °F - 60.1 °F 79% 30.08 in 10.0 mi Calm Calm - N/A   Clear
6:54 AM 64.9 °F - 59.0 °F 81% 30.09 in 10.0 mi Calm Calm - N/A   Mostly Cloudy
7:54 AM 70.0 °F - 60.1 °F 71% 30.08 in 10.0 mi Calm Calm - N/A   Scattered Clouds
8:54 AM 73.0 °F - 59.0 °F 61% 30.09 in 10.0 mi Calm Calm - N/A   Overcast
9:54 AM 79.0 °F - 61.0 °F 54% 30.09 in 10.0 mi Calm Calm - N/A   Clear
10:54 AM 80.1 °F 80.9 °F 60.1 °F 50% 30.08 in 10.0 mi Calm Calm - N/A   Clear
11:54 AM 82.0 °F 82.7 °F 61.0 °F 49% 30.06 in 10.0 mi East 4.6 mph - N/A   Mostly Cloudy
12:54 PM 82.0 °F 82.4 °F 60.1 °F 47% 30.05 in - SE 5.8 mph - N/A   Mostly Cloudy
1:54 PM 84.0 °F 84.0 °F 60.1 °F 44% 30.03 in 10.0 mi SE 6.9 mph - N/A   Scattered Clouds
2:54 PM 82.9 °F 83.2 °F 60.1 °F 46% 30.02 in 10.0 mi ESE 5.8 mph - N/A   Mostly Cloudy
3:54 PM 82.9 °F 83.2 °F 60.1 °F 46% 30.00 in 10.0 mi ESE 4.6 mph - N/A   Mostly Cloudy
4:54 PM 82.9 °F 82.8 °F 59.0 °F 44% 29.99 in 10.0 mi Calm Calm - N/A   Overcast
5:54 PM 81.0 °F 82.2 °F 63.0 °F 54% 29.99 in 10.0 mi ESE 4.6 mph - N/A   Overcast
6:54 PM 79.0 °F - 62.1 °F 56% 30.01 in 10.0 mi NE 9.2 mph - N/A   Overcast
7:54 PM 77.0 °F - 64.0 °F 64% 30.02 in 10.0 mi East 8.1 mph - N/A   Overcast
8:54 PM 73.9 °F - 61.0 °F 64% 30.03 in 10.0 mi East 8.1 mph - N/A   Overcast
9:54 PM 73.0 °F - 61.0 °F 66% 30.04 in 10.0 mi East 5.8 mph - N/A   Scattered Clouds
10:54 PM 70.0 °F - 61.0 °F 73% 30.05 in 10.0 mi NNE 4.6 mph - N/A   Scattered Clouds
11:54 PM 71.1 °F - 62.1 °F 73% 30.06 in 10.0 mi Calm Calm - N/A   Overcast